EW4987 Weather Reports


Display with metric or nautical units.
time (UTC)temp
F
wind
direction
speed
MPH
gust
MPH
rain 1hr
in
rain 24hr
in
rain mn
in
humidity
%
barometer
mb
20260906233058 73 184 0.0 0.0 0.00 0.00 0.00 39 1004.9
20260906231605 73 177 0.0 0.0 0.00 0.00 0.00 39 1005.0
20260906230048 73 176 0.0 0.0 0.00 0.00 0.00 38 1005.3
20260906224544 74 175 0.0 0.0 0.00 0.00 0.00 37 1005.6
20260906223040 74 360 0.0 0.0 0.00 0.00 0.00 36 1005.7
20260906221537 74 173 0.0 0.0 0.00 0.00 0.00 36 1005.8
20260906220033 74 167 0.0 0.0 0.00 0.00 0.00 37 1006.0
20260906214526 74 188 0.0 0.0 0.00 0.00 0.00 35 1006.0
20260906213022 74 144 0.0 0.0 0.00 0.00 0.00 35 1005.8
20260906211518 74 165 0.0 0.0 0.00 0.00 0.00 34 1006.0
20260906210016 75 183 0.0 0.0 0.00 0.00 0.00 35 1006.2
20260906204509 75 164 0.0 0.0 0.00 0.00 0.00 33 1006.2
20260906203014 76 178 0.0 0.0 0.00 0.00 0.00 30 1006.4
20260906201600 76 155 0.0 0.0 0.00 0.00 0.00 31 1006.6
20260906200056 76 185 0.0 0.0 0.00 0.00 0.00 31 1006.5
20260906194604 76 134 0.0 0.0 0.00 0.00 0.00 31 1006.8
20260906193047 76 167 0.0 0.0 0.00 0.00 0.00 31 1006.8
20260906191545 75 169 0.0 0.0 0.00 0.00 0.00 29 1006.9
20260906190038 76 178 0.0 0.0 0.00 0.00 0.00 28 1006.9
20260906184534 77 158 0.0 0.0 0.00 0.00 0.00 29 1007.0
20260906183039 77 161 0.0 0.0 0.00 0.00 0.00 30 1007.2
20260906181535 76 174 0.0 0.0 0.00 0.00 0.00 29 1007.2
20260906180027 76 168 0.0 0.0 0.00 0.00 0.00 29 1007.4
20260906174515 76 360 0.0 0.0 0.00 0.00 0.00 31 1007.9
20260906173011 75 175 0.0 0.0 0.00 0.00 0.00 33 1008.0
20260906171508 74 152 0.0 0.0 0.00 0.00 0.00 33 1008.2
20260906170003 74 168 0.0 0.0 0.00 0.00 0.00 35 1008.5
20260906164558 73 167 0.0 0.0 0.00 0.00 0.00 34 1008.7
20260906163055 67 153 0.0 0.0 0.00 0.00 0.00 43 1008.9
20260906161613 63 143 0.0 0.0 0.00 0.00 0.00 43 1009.5
20260906160045 60 143 0.0 0.0 0.00 0.00 0.00 41 1009.8
20260906154546 58 143 0.0 0.0 0.00 0.00 0.00 42 1010.1
20260906153043 56 143 0.0 0.0 0.00 0.00 0.00 43 1010.4
20260906151533 55 143 0.0 0.0 0.00 0.00 0.00 41 1010.6
20260906150032 54 143 0.0 0.0 0.00 0.00 0.00 35 1010.8
20260906144525 52 143 0.0 0.0 0.00 0.00 0.00 21 1010.9
20260906143017 50 143 0.0 0.0 0.00 0.00 0.00 10 1011.0
20260906141513 49 143 0.0 0.0 0.00 0.00 0.00 9 1011.0
20260906140011 47 143 0.0 0.0 0.00 0.00 0.00 12 1010.9
20260906134504 44 143 0.0 0.0 0.00 0.00 0.00 12 1010.8
20260906133109 43 143 0.0 0.0 0.00 0.00 0.00 14 1010.7
20260906131606 43 143 0.0 0.0 0.00 0.00 0.00 14 1010.4
20260906130058 43 143 0.0 0.0 0.00 0.00 0.00 15 1010.5
20260906124547 44 143 0.0 0.0 0.00 0.00 0.00 16 1010.5
20260906123043 44 143 0.0 0.0 0.00 0.00 0.00 16 1010.4
20260906121542 44 143 0.0 0.0 0.00 0.00 0.00 16 1010.3
20260906120038 44 143 0.0 0.0 0.00 0.00 0.00 18 1010.4
20260906114546 45 143 0.0 0.0 0.00 0.00 0.00 18 1010.2
20260906113035 45 143 0.0 0.0 0.00 0.00 0.00 18 1010.2
20260906111541 45 143 0.0 0.0 0.00 0.00 0.00 18 1010.2
20260906110029 45 143 0.0 0.0 0.00 0.00 0.00 23 1010.1
20260906104531 46 143 0.0 0.0 0.00 0.00 0.00 25 1009.9
20260906103023 46 143 0.0 0.0 0.00 0.00 0.00 33 1009.7
20260906101523 47 143 0.0 0.0 0.00 0.00 0.00 49 1009.4
20260906100028 47 143 0.0 0.0 0.00 0.00 0.00 52 1009.2
20260906094514 47 143 0.0 0.0 0.00 0.00 0.00 54 1009.0
20260906093015 48 143 0.0 0.0 0.00 0.00 0.00 56 1009.0
20260906091511 48 143 0.0 0.0 0.00 0.00 0.00 57 1008.8
20260906090007 49 143 0.0 0.0 0.00 0.00 0.00 57 1008.8
20260906084509 49 143 0.0 0.0 0.00 0.00 0.00 57 1008.8
20260906083003 49 143 0.0 0.0 0.00 0.00 0.00 57 1008.6
20260906081501 49 143 0.0 0.0 0.00 0.00 0.00 57 1008.6
20260906080059 50 143 0.0 0.0 0.00 0.00 0.00 57 1008.7
20260906074556 50 143 0.0 0.0 0.00 0.00 0.00 57 1008.6
20260906073054 51 143 0.0 0.0 0.00 0.00 0.00 56 1008.5
20260906071554 51 143 0.0 0.0 0.00 0.00 0.00 56 1008.6
20260906070053 51 143 0.0 0.0 0.00 0.00 0.00 56 1008.4
20260906064549 52 143 0.0 0.0 0.00 0.00 0.00 55 1008.2
20260906063044 53 143 0.0 0.0 0.00 0.00 0.00 53 1008.2
20260906061546 54 143 0.0 0.0 0.00 0.00 0.00 50 1008.1
20260906060044 54 143 0.0 0.0 0.00 0.00 0.00 50 1008.0
20260906054542 55 143 0.0 0.0 0.00 0.00 0.00 51 1008.0
20260906053030 55 143 0.0 0.0 0.00 0.00 0.00 52 1007.8
20260906051525 56 143 0.0 0.0 0.00 0.00 0.00 49 1007.8
20260906050021 57 143 0.0 0.0 0.00 0.00 0.00 45 1007.7
20260906044519 56 143 0.0 0.0 0.00 0.00 0.00 47 1007.7
20260906043026 57 143 0.0 0.0 0.00 0.00 0.00 47 1007.6
20260906041508 58 143 0.0 0.0 0.00 0.00 0.00 44 1007.4
20260906040004 60 143 0.0 0.0 0.00 0.00 0.00 41 1007.1
20260906034606 61 143 0.0 0.0 0.00 0.00 0.00 39 1006.9
20260906033055 61 143 0.0 0.0 0.00 0.00 0.00 39 1006.7
20260906031551 62 143 0.0 0.0 0.00 0.00 0.00 39 1006.5
20260906030046 64 143 0.0 0.0 0.00 0.00 0.00 35 1006.3
20260906024543 66 143 0.0 0.0 0.00 0.00 0.00 32 1006.0
20260906023037 68 143 0.0 0.0 0.00 0.00 0.00 30 1005.6
20260906021540 69 172 0.0 0.0 0.00 0.00 0.00 29 1005.3
20260906020029 71 208 0.0 0.0 0.00 0.00 0.00 26 1005.1
20260906014526 73 221 0.0 0.0 0.00 0.00 0.00 25 1005.1
20260906013022 76 234 0.0 0.0 0.00 0.00 0.00 19 1005.0
20260906011517 78 233 0.0 1.0 0.00 0.00 0.00 18 1004.9
20260906010013 78 238 0.0 10.0 0.00 0.00 0.00 19 1005.0
20260906004509 79 233 0.0 0.0 0.00 0.00 0.00 17 1005.0
20260906003004 80 244 0.0 0.0 0.00 0.00 0.00 19 1004.9
20260906001605 80 226 0.0 0.0 0.00 0.00 0.00 20 1004.9
20260906000056 80 213 0.0 0.0 0.00 0.00 0.00 18 1004.9
20260905234552 80 200 0.0 0.0 0.00 0.00 0.00 21 1004.9